Location: Kitchener-Waterloo
(43.4500°N, 80.5000°W)
Time: 05:24:38
(UTC-04:00)

Daily predictions for brighter satellites

Satellite Brightness Start Highest point End
(mag) Time Altitude Azimuth Time Altitude Azimuth Time Altitude Azimuth
H-2A R/B 3.7 00:10:18 31° NW 00:10:18 31° NW 00:12:51 10° NNW
ATLAS 3B R/B 3.8 00:05:40 10° NW 00:11:07 28° WSW 00:11:07 28° WSW
Cosmos 2219 Rocket 2.6 00:14:24 60° NNW 00:14:24 60° NNW 00:19:27 10° NNE
COSMOS 2428 3.9 00:17:01 32° W 00:18:31 38° WNW 00:23:51 10° NNE
SL-16 R/B 4.0 00:21:37 21° ENE 00:21:37 21° ENE 00:23:48 10° NE
CZ-2C R/B 3.7 00:15:58 10° NNE 00:19:21 37° NE 00:19:21 37° NE
Terra 3.8 00:24:36 21° WNW 00:24:36 21° WNW 00:27:25 10° NW
NOSS 3-2 (C) 4.0 00:18:52 10° NW 00:26:23 69° WSW 00:26:27 69° SW
Cosmos 2333 Rocket 2.8 00:32:48 53° NNW 00:32:48 53° NNW 00:37:40 10° NNE
CZ-2C R/B 4.3 00:41:31 35° NNW 00:41:31 35° NNW 00:44:19 10° NNW
NOSS 0 Rocket 4.4 00:49:37 55° NW 00:49:37 55° NW 00:55:34 10° NNE
NOSS 3-4 (A) 4.0 00:54:01 53° WNW 00:54:20 54° NW 01:00:45 10° NNE
NOSS 3-4 (C) 4.0 00:54:09 54° WNW 00:54:26 54° NW 01:00:51 10° NNE
Mayak 1.4 00:51:19 10° NNE 00:52:18 16° NNE 00:52:18 16° NNE
Cosmos 2184 Rocket 4.3 00:56:51 61° N 00:56:51 61° N 01:01:55 10° N
Cosmos 2237 Rocket 3.0 00:57:08 47° NNW 00:57:08 47° NNW 01:01:38 10° NNE
Cosmos 2369 Rocket 4.2 00:54:41 10° N 00:58:51 20° NE 00:59:57 19° ENE
Cosmos 2074 Rocket 4.3 01:01:31 62° NNW 01:01:31 62° NNW 01:06:47 10° N
CENTAUR R/B 3.0 00:56:34 10° NW 01:04:30 89° NE 01:04:37 88° ESE
Nadezhda 3 Rocket 4.4 01:02:18 10° N 01:07:39 59° NNE 01:07:39 59° NNE
USA 215 3.4 01:13:10 67° NE 01:13:18 67° NE 01:19:48 10° NW
Lacrosse 5 4.3 01:17:44 10° WNW 01:21:24 19° NNW 01:25:05 10° NE
ATLAS CENTAUR R/B 4.4 01:18:24 10° NNW 01:18:29 10° NNW 01:18:29 10° NNW
Cosmos 2278 Rocket 4.3 01:29:34 10° NW 01:31:25 17° WNW 01:31:25 17° WNW
ATLAS CENTAUR R/B 3.5 01:27:10 10° NW 01:35:03 51° NNW 01:35:03 51° NNW
COSMOS 2455 3.9 01:38:39 10° NW 01:42:18 37° NW 01:42:18 37° NW
SL-16 R/B 3.3 02:03:29 36° NW 02:03:29 36° NW 02:08:04 10° N
Cosmos 1937 Rocket 4.4 02:14:50 10° NNW 02:18:47 46° NNE 02:18:47 46° NNE
SL-8 Rocket 4.3 02:29:59 60° NW 02:29:59 60° NW 02:35:23 10° N
Mayak 1.5 02:28:07 10° NNW 02:28:57 13° NW 02:28:57 13° NW
Cosmos 1943 Rocket 2.8 02:26:12 10° NNW 02:31:11 52° NE 02:31:11 52° NE
SL-16 R/B 4.0 02:30:31 22° ESE 02:33:25 32° ENE 02:38:47 10° N
Cosmos 2218 Rocket 4.2 02:35:42 68° NW 02:35:42 68° NW 02:41:31 10° N
Resurs 1-4 Rocket 4.0 02:34:17 10° NE 02:38:05 20° E 02:38:22 20° E
Cosmos 2369 Rocket 3.0 02:37:48 10° NNW 02:41:42 44° NW 02:41:42 44° NW
CZ-3A R/B 3.7 02:34:41 10° NW 02:46:43 75° NNE 02:52:05 10° ESE
Cosmos 371 Rocket 4.3 02:48:53 43° N 02:48:53 43° N 02:52:14 10° NNE
CZ-2D R/B 3.7 02:44:10 10° NE 02:48:30 24° E 02:48:55 24° E
Cosmos 1814 Rocket 4.4 02:55:44 59° NNE 02:55:44 59° NNE 03:00:01 10° NNE
Cosmos 1943 3.4 02:56:08 65° NNW 02:56:08 65° NNW 03:01:09 10° NNE
Cosmos 841 Rocket 3.9 03:01:51 59° NE 03:01:51 59° NE 03:06:12 10° NNE
SL-24 R/B - RUBIN 2 4.5 03:03:12 71° WNW 03:03:19 72° NW 03:09:28 10° NNE
Helios 1A Rocket 4.4 03:01:41 10° NNE 03:04:07 35° NNE 03:04:07 35° NNE
Lacrosse 5 4.4 03:02:24 10° NW 03:06:02 19° NNE 03:09:41 10° ENE
COBE Rocket 4.3 03:03:40 10° N 03:07:53 62° N 03:07:53 62° N
ARIANE 5 R/B 3.8 03:06:48 10° NNE 03:11:29 32° E 03:12:11 31° ESE
Cosmos 1000 Rocket 4.4 03:06:02 10° N 03:12:19 82° E 03:12:56 73° SE
BREEZE-M DEB (TANK) 3.5 03:13:14 66° W 03:14:02 79° NNW 03:30:56 10° ENE
SL-08 R/B 3.8 03:15:58 54° N 03:15:58 54° N 03:19:40 10° NNW
Cosmos 1626 4.2 03:12:55 10° N 03:14:42 26° N 03:14:42 26° N
Meteor 1-16 Rocket 4.2 03:17:55 75° WNW 03:17:55 75° WNW 03:23:41 10° N
UNK 4.3 03:19:10 54° ENE 03:19:10 54° ENE 03:23:30 10° N
Cosmos 304 Rocket 4.1 03:20:35 62° NE 03:20:35 62° NE 03:24:39 10° NNE
Cosmos 2239 Rocket 4.4 03:19:57 68° SSE 03:20:47 79° E 03:27:06 10° N
ADEOS Rocket 2.6 03:16:19 10° NNE 03:21:45 78° WNW 03:21:45 78° WNW
Cosmos 1400 Rocket 4.5 03:19:54 10° NNE 03:23:22 29° ENE 03:23:32 29° ENE
Cosmos 1535 Rocket 4.5 03:28:55 64° S 03:30:00 84° E 03:36:26 10° N
IRS-1D 3.8 03:30:52 10° NNE 03:35:58 61° ESE 03:36:35 56° SE
Cosmos 2221 2.9 03:41:00 59° E 03:41:00 59° E 03:45:08 10° NNE
Cosmos 2058 4.0 03:37:29 10° NNW 03:40:03 36° NNW 03:40:03 36° NNW
ADEOS 4.0 03:38:58 10° NNE 03:44:06 54° E 03:45:16 44° SE
Spot 4 Rocket 4.0 03:39:19 10° NNE 03:44:29 74° ESE 03:45:08 65° SSE
NPP 3.8 03:42:00 10° N 03:47:15 54° WNW 03:47:30 53° W
COSMOS 2406 3.7 03:47:05 43° SSE 03:48:26 53° ESE 03:53:58 10° NNE
CBERS-1 4.2 03:43:50 10° N 03:48:49 54° WNW 03:48:52 54° WNW
Cosmos 372 Rocket 3.9 03:44:38 10° NNW 03:49:50 85° ENE 03:51:00 55° SSE
Cosmos 2098 Rocket 3.6 03:52:13 61° SW 03:53:10 75° W 03:58:17 10° N
IRS-1C 4.1 03:48:00 10° N 03:53:18 65° WNW 03:53:50 61° WSW
Cosmos 1842 Rocket 4.5 03:54:54 37° NW 03:54:54 37° NW 03:58:11 10° N
Cosmos 1763 Rocket 4.5 03:54:51 31° WNW 03:54:56 31° WNW 03:59:27 10° N
Cosmos 540 Rocket 3.3 03:58:15 67° WSW 03:58:46 74° WNW 04:03:55 10° NNE
Meteor 2-1 Rocket 4.1 03:58:39 59° WSW 03:59:27 67° WNW 04:04:58 10° N
Cosmos 1908 3.4 04:03:42 64° NNW 04:03:42 64° NNW 04:07:02 10° N
MOS 1 Rocket 2.9 04:02:35 10° N 04:06:56 84° WNW 04:07:19 73° SW
Cosmos 1300 3.9 04:12:33 29° SE 04:13:48 39° E 04:17:23 10° NNE
Cosmos 1125 Rocket 3.6 04:09:01 10° NNW 04:14:04 50° WSW 04:14:14 50° WSW
Cosmos 1242 Rocket 4.5 04:15:31 19° NW 04:15:31 19° NW 04:17:13 10° NNW
Cosmos 1943 Rocket 3.9 04:10:46 10° NW 04:12:38 17° WNW 04:12:38 17° WNW
Sich 1 3.3 04:11:17 10° N 04:15:40 66° E 04:17:46 29° SSE
BREEZE M DEB (TANK) 4.4 04:17:34 15° E 04:17:34 15° E 04:18:04 10° ESE
SL-16 R/B 2.8 04:15:37 41° SW 04:16:49 46° W 04:22:48 10° NNW
Resurs 1-4 Rocket 2.3 04:13:07 10° N 04:18:15 55° WNW 04:19:26 45° WSW
Cosmos 2123 Rocket 4.1 04:12:47 10° NNW 04:18:52 55° W 04:20:53 39° SW
CZ-2D R/B 3.5 04:16:18 10° NNE 04:20:19 68° E 04:21:16 48° SSE
Cosmos 1656 Rocket 3.9 04:17:43 10° NW 04:23:08 45° WSW 04:24:03 41° SW
Cosmos 1315 Rocket 2.8 04:22:50 10° N 04:26:55 82° E 04:28:33 34° SSE
CZ-2D R/B 2.6 04:23:39 10° N 04:28:47 46° WNW 04:30:14 37° WSW
OPS 8737 4.4 04:29:28 64° S 04:29:50 72° SE 04:33:10 10° NE
Cosmos 1459 Rocket 4.5 04:25:34 12° SSE 04:31:09 57° E 04:37:05 10° NNE
Cosmos 2228 Rocket 4.0 04:31:12 16° SSE 04:34:35 46° E 04:38:51 10° NNE
USA 229 DEB 3.8 04:29:17 10° NW 04:36:18 57° WSW 04:43:25 10° SSE
USA 229 3.8 04:29:24 10° NW 04:36:24 58° WSW 04:43:31 10° SSE
Cosmos 2082 Rocket 4.2 04:36:31 10° SSE 04:40:54 24° ESE 04:45:19 10° NE
NOSS 3-1 (A) 4.4 04:33:56 10° NNW 04:41:28 69° NE 04:49:50 10° SE
PSLV R/B 3.2 04:42:54 55° S 04:42:54 55° S 04:46:00 10° ESE
Cosmos 1633 Rocket 2.9 04:39:42 10° NNW 04:44:05 74° W 04:46:49 22° S
USA 161 2.2 04:47:07 35° NNE 04:47:07 35° NNE 04:48:32 10° N
Tiangong 2 3.6 04:46:42 12° SSE 04:47:04 12° SE 04:48:25 10° ESE
Cosmos 292 Rocket 3.8 04:46:24 33° SW 04:48:27 66° WNW 04:53:16 10° NNE
Lacrosse 5 3.0 04:45:16 10° NW 04:50:08 44° NNE 04:55:00 10° ESE
Cosmos 2061 Rocket 4.3 04:44:06 10° S 04:50:30 73° E 04:56:54 10° NNE
ARIANE 5 R/B 3.4 04:45:54 10° N 04:50:35 34° WNW 04:52:31 26° WSW
CZ-4B R/B 4.2 04:51:48 10° NNE 04:56:04 44° E 05:00:23 10° S
UNKNOWN OBJECT B 3.6 04:54:53 10° N 04:58:39 37° WNW 05:00:00 29° WSW
Cosmos 1400 Rocket 4.3 04:56:45 10° NW 04:59:08 20° WNW 04:59:08 20° WNW
Cosmos 1726 3.0 05:03:53 28° WSW 05:04:46 31° WNW 05:08:08 10° NNW
Cosmos 2369 4.0 05:00:57 10° NNW 05:06:37 70° ENE 05:12:15 10° SSE
Cosmos 1328 Rocket 3.5 05:05:17 20° SSW 05:08:12 65° W 05:12:32 10° N
ADEOS II 2.2 05:03:45 10° NNE 05:09:02 80° ESE 05:14:17 10° S
SL-27 R/B 3.1 05:08:12 28° WSW 05:09:16 36° WNW 05:12:28 10° N
Cosmos 1892 3.2 05:06:10 10° N 05:09:59 62° E 05:13:47 10° SSE
Cosmos 2016 Rocket 4.0 05:04:24 10° S 05:10:32 82° E 05:16:39 10° N
NOSS 3-1 (C) 4.0 05:03:38 10° NW 05:11:13 69° WSW 05:19:32 10° SSE
MOS 1-B 4.3 05:06:43 10° NNE 05:12:34 84° WNW 05:18:23 10° SSW
Shenzhou-11 Module 3.6 05:14:51 18° SSW 05:16:09 24° SSE 05:18:44 10° E
In-Cosmos 22 Rocket 4.1 05:10:58 10° NNW 05:16:17 59° W 05:21:29 10° S
PSLV R/B 3.9 05:12:38 10° NNE 05:16:59 67° ESE 05:21:15 10° S
Cosmos 2221 4.5 05:17:54 12° W 05:18:51 13° WNW 05:20:58 10° NW
BREEZE-M DEB (TANK) 3.8 05:20:14 12° S 05:20:14 12° S 05:20:50 10° S
Cosmos 1656 4.0 05:15:33 10° NNW 05:21:16 71° ENE 05:26:56 10° SSE
Meteor 2-2 Rocket 4.5 05:15:54 12° SSW 05:21:16 59° WNW 05:27:15 10° N
Cosmos 1725 Rocket 4.2 05:17:02 10° S 05:23:11 73° E 05:29:21 10° NNE
Cosmos 1802 Rocket 4.0 05:18:28 10° SSW 05:24:37 67° W 05:30:54 10° N
Cosmos 1933 Rocket 3.6 05:21:29 10° NNW 05:25:53 59° W 05:30:15 10° S
Cosmos 2100 Rocket 4.3 05:21:04 11° SSW 05:27:03 51° WNW 05:33:16 10° N
Cosmos 773 Rocket 4.2 05:26:23 13° SW 05:31:06 60° WNW 05:36:21 10° NNE
Abrixas 2.5 05:29:36 16° W 05:31:26 41° SSW 05:33:55 10° SE
COSMOS 2487 2.9 05:29:23 10° S 05:32:52 64° ESE 05:36:24 10° NNE
COSMOS 2406 4.5 05:29:09 13° WSW 05:33:03 26° NW 05:37:48 10° N
Okean O Rocket 1.6 05:30:37 10° NNE 05:35:04 87° WNW 05:39:28 10° SSW
Cosmos 1833 Rocket 3.0 05:34:06 10° SSW 05:39:42 71° ESE 05:45:21 10° NNE
Cosmos 1408 4.2 05:38:15 10° N 05:41:42 38° ENE 05:45:05 10° SSE
Cosmos 1151 Rocket 3.3 05:38:55 10° SSW 05:43:04 47° WNW 05:47:12 10° N
Tsikada Rocket 4.0 05:36:46 10° N 05:43:06 84° W 05:49:28 10° S
Cosmos 1980 Rocket 3.2 05:47:19 10° NNW 05:52:49 53° ENE 05:58:17 10° SE
Cosmos 2278 3.9 05:50:56 10° NW 05:56:21 48° WSW 06:01:45 10° S
Cosmos 482 Debris 4.4 05:59:11 10° WNW 06:01:40 37° SW 06:05:34 10° SSE
EO 1 Del DPAF 3.4 05:58:46 10° SSE 06:02:36 79° ENE 06:06:28 10° N
